DW3696 Selston UK current weather conditions

sailwx.info

Wind from 281

Air temperature 17.8° C
Dewpoint 14.7° C

Last reported at 2019-Jun-19 12:09 UTC.
Time now 2019-Jun-19 12:48 UTC

Location: N 53°04' W 001°18'.
View on Google Maps.

See reports from other nearby stations

  
Tides and Currents Weather Stations Pressure Air Temp Water Temp Dewpoint Dewpoint Depression Visibility Wind Speed Wind Dir Waves Ship Positions
date/time (UTC)wind fromknots sea level pressurealtimeterstation pressurevisibilityair tempwater tempwave heightnotes
2019-Jun-19 12:09 281 17.8
2019-Jun-19 11:59 280 17.2
2019-Jun-19 11:49 272 17.8
2019-Jun-19 11:39 272 17.2
2019-Jun-19 11:29 272 17.8
2019-Jun-19 11:19 272 17.8
2019-Jun-19 11:09 272 17.2
2019-Jun-19 10:59 272 17.2
2019-Jun-19 10:49 272 16.7
2019-Jun-19 10:39 272 16.1
2019-Jun-19 10:29 270 1 gusting 4 15.6
2019-Jun-19 10:18 256 15.6
2019-Jun-19 10:08 256 15.0
2019-Jun-19 09:58 256 15.0
2019-Jun-19 09:48 256 15.0
2019-Jun-19 09:38 256 14.4
2019-Jun-19 09:28 256 14.4
2019-Jun-19 09:18 256 14.4
2019-Jun-19 09:08 256 14.4
2019-Jun-19 08:57 242 14.4
2019-Jun-19 08:47 242 14.4
2019-Jun-19 08:37 242 14.4
2019-Jun-19 08:27 242 14.4
2019-Jun-19 08:17 242 0 gusting 2 13.9
2019-Jun-19 08:07 222 14.4
2019-Jun-19 07:56 222 13.9
2019-Jun-19 07:46 222 14.4
2019-Jun-19 07:36 222 13.9
2019-Jun-19 07:26 222 13.9
2019-Jun-19 07:15 222 14.4
2019-Jun-19 07:06 222 14.4
2019-Jun-19 06:56 222 14.4
2019-Jun-19 06:46 222 14.4
2019-Jun-19 06:36 126 14.4
2019-Jun-19 06:25 126 14.4
2019-Jun-19 06:15 125 14.4
2019-Jun-19 06:05 125 13.9
2019-Jun-19 05:56 125 13.9
2019-Jun-19 05:46 125 13.9
2019-Jun-19 05:36 125 13.9
2019-Jun-19 05:26 125 13.9
2019-Jun-19 05:16 125 13.9
2019-Jun-19 05:06 125 13.9
2019-Jun-19 04:56 125 13.9
2019-Jun-19 04:46 125 13.9
2019-Jun-19 04:36 125 13.9
2019-Jun-19 04:27 124 13.9
2019-Jun-19 04:16 124 13.9
2019-Jun-19 04:06 124 13.9
2019-Jun-19 03:56 124 13.9
2019-Jun-19 03:46 124 13.9
2019-Jun-19 03:36 125 13.9
2019-Jun-19 03:26 125 13.9
2019-Jun-19 03:16 125 13.9
2019-Jun-19 03:07 125 13.9
2019-Jun-19 02:57 125 13.9
2019-Jun-19 02:47 125 13.9
2019-Jun-19 02:38 125 13.9
2019-Jun-19 02:28 125 13.9
2019-Jun-19 02:18 125 13.9
2019-Jun-19 02:08 125 13.9
2019-Jun-19 01:58 125 13.9
2019-Jun-19 01:48 125 13.9
2019-Jun-19 01:38 125 13.9
2019-Jun-19 01:28 125 13.9
2019-Jun-19 01:18 125 13.9
2019-Jun-19 01:08 125 13.9
2019-Jun-19 00:58 125 13.9
2019-Jun-19 00:47 125 13.9
2019-Jun-19 00:37 125 13.9
2019-Jun-19 00:27 125 13.9
2019-Jun-19 00:17 125 13.9
2019-Jun-19 00:07 125 13.9
2019-Jun-18 23:57 125 13.9
2019-Jun-18 23:48 125 13.3
2019-Jun-18 23:37 125 13.3
2019-Jun-18 23:27 125 13.3
2019-Jun-18 23:17 125 13.3
2019-Jun-18 23:07 125 13.3
2019-Jun-18 22:57 125 13.3
2019-Jun-18 22:46 125 13.3
2019-Jun-18 22:36 125 13.3
2019-Jun-18 22:26 125 13.3
2019-Jun-18 22:15 125 13.3
2019-Jun-18 22:05 125 13.3
2019-Jun-18 21:55 125 13.3
2019-Jun-18 21:45 125 13.3
2019-Jun-18 21:05 125 13.9
2019-Jun-18 20:55 125 13.9
2019-Jun-18 20:45 130 13.9
2019-Jun-18 20:35 130 13.9
2019-Jun-18 20:25 130 13.9
2019-Jun-18 20:15 130 13.9
2019-Jun-18 20:05 130 13.9
2019-Jun-18 19:55 130 13.9
2019-Jun-18 19:45 130 13.9
2019-Jun-18 19:35 130 13.9
2019-Jun-18 19:25 130 13.9
2019-Jun-18 19:15 130 13.9
2019-Jun-18 19:05 130 14.4
2019-Jun-18 18:55 130 14.4
2019-Jun-18 18:45 130 14.4
2019-Jun-18 18:35 130 14.4
2019-Jun-18 18:25 130 14.4
2019-Jun-18 18:15 130 14.4
2019-Jun-18 18:05 130 1 gusting 5 15.0
2019-Jun-18 17:55 137 2 gusting 5 15.0
2019-Jun-18 17:45 132 2 gusting 6 15.6
2019-Jun-18 17:35 133 1 gusting 6 16.1
2019-Jun-18 17:25 136 0 gusting 4 16.1
2019-Jun-18 17:15 136 0 gusting 5 16.7
2019-Jun-18 17:05 142 0 gusting 4 17.2
2019-Jun-18 16:55 127 1 gusting 6 17.8
2019-Jun-18 16:45 126 0 gusting 6 18.3
2019-Jun-18 16:35 138 18.3
2019-Jun-18 16:25 138 18.3
2019-Jun-18 16:15 138 18.3
2019-Jun-18 16:05 138 0 gusting 5 18.3
2019-Jun-18 15:55 144 18.3
2019-Jun-18 15:44 144 1 gusting 4 18.3
2019-Jun-18 15:35 171 18.9
2019-Jun-18 15:24 173 18.3
2019-Jun-18 15:14 204 0 gusting 3 18.3
2019-Jun-18 15:04 227 0 gusting 5 18.3
2019-Jun-18 14:54 223 0 gusting 4 18.3
2019-Jun-18 14:43 175 18.3
2019-Jun-18 14:33 166 0 gusting 2 18.3
2019-Jun-18 14:23 211 0 gusting 5 18.3
2019-Jun-18 14:13 184 0 gusting 5 18.3
2019-Jun-18 14:04 225 0 17.8
2019-Jun-18 13:53 238 0 gusting 6 17.8
2019-Jun-18 13:42 207 1 gusting 6 17.8
2019-Jun-18 13:32 221 1 gusting 6 17.8
2019-Jun-18 13:23 232 0 gusting 6 17.8
2019-Jun-18 13:13 246 1 gusting 6 17.2
2019-Jun-18 13:02 205 1 gusting 6 17.8
2019-Jun-18 12:52 162 1 gusting 8 17.2
2019-Jun-18 12:41 154 2 gusting 8 17.2
2019-Jun-18 12:31 159 1 gusting 7 17.2
2019-Jun-18 12:21 152 0 gusting 4 17.2
2019-Jun-18 12:11 229 16.7
2019-Jun-18 12:02 229 1 gusting 5 16.7
2019-Jun-18 11:52 240 1 gusting 6 16.7
2019-Jun-18 11:42 243 2 gusting 6 17.2
2019-Jun-18 11:32 250 1 gusting 6 17.2
2019-Jun-18 11:21 184 2 gusting 6 17.2
2019-Jun-18 11:11 199 3 gusting 6 17.8
2019-Jun-18 11:01 213 3 gusting 9 17.8
2019-Jun-18 10:50 246 3 gusting 9 17.8
2019-Jun-18 10:40 263 3 gusting 8 17.8
2019-Jun-18 10:30 229 2 gusting 7 17.8
2019-Jun-18 10:20 161 1 gusting 6 17.8
2019-Jun-18 10:10 241 2 gusting 6 17.2
2019-Jun-18 10:00 275 1 gusting 5 17.2
2019-Jun-18 09:50 206 1 gusting 6 16.7
2019-Jun-18 09:40 198 1 gusting 6 16.7
2019-Jun-18 09:29 219 1 gusting 6 16.7
2019-Jun-18 09:19 234 0 gusting 5 16.1
2019-Jun-18 09:09 221 0 gusting 5 16.1
2019-Jun-18 09:00 239 1 gusting 6 15.6
2019-Jun-18 08:50 174 1 gusting 6 15.6
2019-Jun-18 08:40 232 1 gusting 6 15.0
2019-Jun-18 08:29 227 1 gusting 4 15.0
2019-Jun-18 08:19 229 1 gusting 5 15.0
2019-Jun-18 08:09 198 1 gusting 5 14.4
2019-Jun-18 07:59 230 0 gusting 5 14.4
2019-Jun-18 07:49 182 1 gusting 5 14.4
2019-Jun-18 07:39 202 0 gusting 3 13.9
2019-Jun-18 07:28 234 0 gusting 4 13.9
2019-Jun-18 07:19 223 0 13.9
2019-Jun-18 07:09 222 0 gusting 3 13.3
2019-Jun-18 06:59 217 0 gusting 3 13.3
2019-Jun-18 06:49 241 0 gusting 4 13.3
2019-Jun-18 06:39 240 2 gusting 4 13.3
2019-Jun-18 06:29 227 0 gusting 4 12.8
2019-Jun-18 06:19 224 12.8
2019-Jun-18 06:09 222 12.8
2019-Jun-18 05:58 222 12.2
2019-Jun-18 05:48 222 0 gusting 3 12.2
2019-Jun-18 05:38 223 12.2
2019-Jun-18 05:28 223 11.7
2019-Jun-18 05:18 223 11.7
2019-Jun-18 05:08 223 11.1
2019-Jun-18 04:58 223 11.1
2019-Jun-18 04:48 223 10.6
2019-Jun-18 04:37 223 10.6
2019-Jun-18 04:28 223 10.6
2019-Jun-18 04:17 223 10.6
2019-Jun-18 04:07 223 10.6
2019-Jun-18 03:57 223 11.1
2019-Jun-18 03:48 223 11.1
2019-Jun-18 03:38 223 11.1
2019-Jun-18 03:27 223 11.1
2019-Jun-18 03:17 223 11.7
2019-Jun-18 03:07 223 11.7
2019-Jun-18 02:57 223 0 gusting 2 11.7
2019-Jun-18 02:47 222 11.7
2019-Jun-18 02:37 222 12.2
2019-Jun-18 02:27 222 0 gusting 0 12.2
2019-Jun-18 02:17 221 0 gusting 4 12.2
2019-Jun-18 02:06 221 1 gusting 6 12.2
2019-Jun-18 01:56 223 2 gusting 6 12.2
2019-Jun-18 01:45 225 0 gusting 4 12.2
2019-Jun-18 01:35 215 12.2
2019-Jun-18 01:25 214 12.2
2019-Jun-18 01:15 214 12.8
2019-Jun-18 01:04 214 12.8
2019-Jun-18 00:54 214 12.8
2019-Jun-18 00:44 214 12.8
2019-Jun-18 00:35 214 12.8
2019-Jun-18 00:24 214 13.3
2019-Jun-18 00:14 214 13.3
2019-Jun-18 00:05 214 13.3
2019-Jun-17 23:55 214 13.9
2019-Jun-17 23:45 214 13.9
2019-Jun-17 23:34 214 13.9
2019-Jun-17 23:24 214 13.9
2019-Jun-17 23:14 214 14.4
2019-Jun-17 23:03 214 0 gusting 4 14.4
2019-Jun-17 22:53 213 0 gusting 4 14.4
2019-Jun-17 22:43 209 14.4
2019-Jun-17 22:33 209 14.4
2019-Jun-17 22:23 209 14.4
2019-Jun-17 22:13 209 14.4
2019-Jun-17 22:03 209 14.4
2019-Jun-17 21:52 208 14.4
2019-Jun-17 21:42 208 14.4
2019-Jun-17 21:32 207 1 gusting 6 14.4
2019-Jun-17 21:22 232 1 gusting 6 15.0
2019-Jun-17 21:13 230 2 gusting 5 15.0
2019-Jun-17 21:03 220 2 gusting 6 15.0
2019-Jun-17 20:52 212 2 gusting 6 15.0
2019-Jun-17 20:42 211 0 gusting 4 15.0
2019-Jun-17 20:32 207 1 gusting 6 15.6
2019-Jun-17 20:22 209 2 gusting 6 15.6
2019-Jun-17 20:12 228 2 gusting 6 15.6
2019-Jun-17 20:01 221 2 gusting 5 15.6
2019-Jun-17 19:52 234 1 gusting 4 16.1
2019-Jun-17 19:41 223 1 gusting 6 16.1
2019-Jun-17 19:31 234 3 gusting 6 16.1
2019-Jun-17 19:21 215 3 gusting 8 16.7
2019-Jun-17 19:10 237 4 gusting 8 16.7
2019-Jun-17 19:00 233 3 gusting 7 16.7
2019-Jun-17 18:50 240 4 gusting 10 17.2
2019-Jun-17 18:40 211 2 gusting 13 17.8
2019-Jun-17 18:29 211 3 gusting 13 18.3